Starlink 31412

operational
NORAD ID: 59410 Int'l Des: 2024-064 Owner: SPXS Country: US Constellation: starlink
LEOCIRCULAR

关于 Starlink 31412

正在加载描述...

实时位置

正在加载3D地球...

即将过境

高度历史

Altitude vs Time

uPlot chart will show altitude changes over time

两行轨道根数

1 59410U 24064N 25306.03877017 -.00001283 00000-0 -37109-4 0 9994
2 59410 43.0038 57.0383 0001544 265.5247 94.5428 15.27570709 89709
Epoch: Nov 2, 2025 • Age: 21 hours

当前状态

高度 484.8 km
速度 7.63 km/s
星下点 32.07°N, 179.36°E
发射日期 Apr 5, 2024
运行时间 1.5 years
类型 internet

技术详情

分类 Payload
质量 730.00 kg
干质量 700.00 kg
总质量 730.00 kg
长度 0.30 m
直径 4.10 m
跨度 29.00 m
形状 Box + pan
制造商 SPXS
平台类型 Starlink V2M
阶段状态 In Orbit
所有者/国家 SPXS/US

大型星座

Loading constellations...